Hourly Weather Kyslivka

Today, 26 October, Monday

Time Temperature Precipitation Wind Pressure Humidity
00:00 +10°C° 0 mm 3 mps 746 mmHg 75%
01:00 +10°C° 0 mm 3 mps 746 mmHg 76%
02:00 +10°C° 0 mm 3 mps 746 mmHg 77%
03:00 +9°C° 0 mm 3 mps 746 mmHg 78%
04:00 +9°C° 0 mm 3 mps 746 mmHg 79%
05:00 +9°C° 0 mm 3 mps 746 mmHg 79%
06:00 +10°C° 0 mm 3 mps 746 mmHg 78%
07:00 +10°C° 0 mm 4 mps 746 mmHg 77%
08:00 +10°C° 0 mm 4 mps 746 mmHg 76%
09:00 +12°C° 0 mm 4 mps 746 mmHg 71%
10:00 +13°C° 0 mm 5 mps 746 mmHg 67%
11:00 +14°C° 0 mm 5 mps 746 mmHg 62%
12:00 +15°C° 0 mm 5 mps 746 mmHg 61%
13:00 +16°C° 0 mm 5 mps 745 mmHg 59%
14:00 +16°C° 0 mm 5 mps 745 mmHg 58%
15:00 +15°C° 0 mm 4 mps 745 mmHg 61%
16:00 +14°C° 0 mm 4 mps 745 mmHg 64%
17:00 +13°C° 0 mm 4 mps 745 mmHg 66%
18:00 +13°C° 0 mm 4 mps 745 mmHg 66%
19:00 +12°C° 0 mm 4 mps 745 mmHg 66%
20:00 +12°C° 0 mm 4 mps 745 mmHg 66%
21:00 +11°C° 0 mm 4 mps 745 mmHg 66%
22:00 +11°C° 0 mm 3 mps 745 mmHg 67%
23:00 +11°C° 0 mm 3 mps 745 mmHg 68%

Tomorrow, 27 October, Tuesday

Time Temperature Precipitation Wind Pressure Humidity
00:00 +10°C° 0 mm 3 mps 745 mmHg 69%
01:00 +10°C° 0 mm 3 mps 745 mmHg 70%
02:00 +10°C° 0 mm 3 mps 745 mmHg 71%
03:00 +8°C° 0 mm 4 mps 745 mmHg 71%
04:00 +8°C° 0 mm 4 mps 745 mmHg 71%
05:00 +8°C° 0 mm 4 mps 746 mmHg 71%
06:00 +8°C° 0 mm 4 mps 746 mmHg 70%
07:00 +8°C° 0 mm 4 mps 746 mmHg 68%
08:00 +10°C° 0 mm 4 mps 746 mmHg 67%
09:00 +11°C° 0 mm 4 mps 746 mmHg 64%
10:00 +13°C° 0 mm 4 mps 746 mmHg 60%
11:00 +14°C° 0 mm 4 mps 746 mmHg 56%
12:00 +15°C° 0 mm 4 mps 746 mmHg 55%
13:00 +17°C° 0 mm 4 mps 746 mmHg 53%
14:00 +17°C° 0 mm 5 mps 746 mmHg 51%
15:00 +17°C° 0 mm 4 mps 746 mmHg 56%
16:00 +15°C° 0 mm 4 mps 746 mmHg 60%
17:00 +13°C° 0 mm 3 mps 746 mmHg 65%
18:00 +13°C° 0 mm 3 mps 746 mmHg 66%
19:00 +12°C° 0 mm 3 mps 746 mmHg 68%
20:00 +12°C° 0 mm 4 mps 746 mmHg 70%
21:00 +12°C° 0 mm 4 mps 746 mmHg 72%
22:00 +11°C° 0 mm 4 mps 746 mmHg 73%
23:00 +11°C° 0 mm 4 mps 746 mmHg 74%

Day after tomorrow, 28 October, Wednesday

Time Temperature Precipitation Wind Pressure Humidity
00:00 +11°C° 0 mm 3 mps 746 mmHg 76%
01:00 +10°C° 0 mm 3 mps 746 mmHg 77%
02:00 +10°C° 0 mm 3 mps 746 mmHg 78%
03:00 +10°C° 0 mm 3 mps 746 mmHg 78%
04:00 +9°C° 0 mm 3 mps 746 mmHg 78%
05:00 +9°C° 0 mm 3 mps 746 mmHg 78%
06:00 +8°C° 0 mm 4 mps 747 mmHg 75%
07:00 +8°C° 0 mm 4 mps 747 mmHg 71%
08:00 +8°C° 0 mm 4 mps 747 mmHg 68%
09:00 +11°C° 0 mm 4 mps 747 mmHg 63%
10:00 +12°C° 0 mm 4 mps 747 mmHg 59%
11:00 +13°C° 0 mm 4 mps 747 mmHg 54%
12:00 +14°C° 0 mm 4 mps 747 mmHg 53%
13:00 +14°C° 0 mm 4 mps 747 mmHg 53%
14:00 +15°C° 0 mm 4 mps 746 mmHg 52%
15:00 +14°C° 0 mm 4 mps 746 mmHg 57%
16:00 +12°C° 0 mm 4 mps 746 mmHg 61%
17:00 +11°C° 0 mm 3 mps 746 mmHg 66%
18:00 +11°C° 0 mm 3 mps 746 mmHg 67%
19:00 +10°C° 0 mm 3 mps 746 mmHg 68%
20:00 +9°C° 0 mm 3 mps 746 mmHg 69%
21:00 +9°C° 0 mm 3 mps 746 mmHg 71%
22:00 +9°C° 0 mm 3 mps 746 mmHg 73%
23:00 +8°C° 0 mm 2 mps 746 mmHg 75%

29 October, Thursday

Time Temperature Precipitation Wind Pressure Humidity
00:00 +8°C° 0 mm 2 mps 746 mmHg 77%
01:00 +7°C° 0 mm 2 mps 746 mmHg 79%
02:00 +7°C° 0 mm 2 mps 746 mmHg 81%
03:00 +7°C° 0 mm 2 mps 746 mmHg 83%
04:00 +7°C° 0 mm 2 mps 746 mmHg 84%
05:00 +6°C° 0 mm 2 mps 746 mmHg 86%
06:00 +7°C° 0 mm 2 mps 746 mmHg 85%
07:00 +7°C° 0 mm 2 mps 746 mmHg 84%
08:00 +7°C° 0 mm 2 mps 746 mmHg 83%
09:00 +9°C° 0 mm 2 mps 746 mmHg 77%
10:00 +10°C° 0 mm 2 mps 746 mmHg 71%
11:00 +13°C° 0 mm 2 mps 746 mmHg 65%
12:00 +13°C° 0 mm 2 mps 746 mmHg 63%
13:00 +14°C° 0 mm 1 mps 746 mmHg 61%
14:00 +15°C° 0 mm 1 mps 745 mmHg 60%
15:00 +14°C° 0 mm 1 mps 745 mmHg 64%
16:00 +13°C° 0 mm 1 mps 746 mmHg 68%
17:00 +12°C° 0 mm 1 mps 746 mmHg 73%
18:00 +11°C° 0 mm 1 mps 746 mmHg 74%
19:00 +10°C° 0 mm 1 mps 746 mmHg 76%
20:00 +10°C° 0 mm 1 mps 746 mmHg 77%
21:00 +10°C° 0 mm 1 mps 746 mmHg 78%
22:00 +9°C° 0 mm 1 mps 746 mmHg 79%
23:00 +8°C° 0 mm 0 mps 746 mmHg 80%

30 October, Friday

Time Temperature Precipitation Wind Pressure Humidity
00:00 +9°C° 0 mm 1 mps 746 mmHg 82%
01:00 +9°C° 0 mm 1 mps 746 mmHg 84%
02:00 +9°C° 0 mm 1 mps 746 mmHg 86%
03:00 +8°C° 0 mm 1 mps 747 mmHg 87%
04:00 +8°C° 0 mm 1 mps 747 mmHg 87%
05:00 +8°C° 0 mm 1 mps 747 mmHg 88%
06:00 +9°C° 0 mm 1 mps 747 mmHg 87%
07:00 +9°C° 0 mm 1 mps 747 mmHg 85%
08:00 +10°C° 0 mm 1 mps 748 mmHg 83%
09:00 +10°C° 0 mm 2 mps 748 mmHg 79%
10:00 +13°C° 0 mm 2 mps 748 mmHg 74%
11:00 +14°C° 0 mm 2 mps 748 mmHg 69%
12:00 +14°C° 0 mm 3 mps 748 mmHg 67%
13:00 +16°C° 0 mm 3 mps 748 mmHg 64%
14:00 +17°C° 0 mm 3 mps 748 mmHg 62%
15:00 +16°C° 0 mm 3 mps 748 mmHg 66%
16:00 +14°C° 0 mm 2 mps 748 mmHg 70%
17:00 +13°C° 0 mm 2 mps 749 mmHg 74%
18:00 +13°C° 0 mm 2 mps 749 mmHg 76%
19:00 +12°C° 0 mm 2 mps 749 mmHg 77%
20:00 +12°C° 0 mm 2 mps 749 mmHg 78%
21:00 +10°C° 0 mm 2 mps 749 mmHg 80%
22:00 +10°C° 0 mm 2 mps 749 mmHg 82%
23:00 +9°C° 0 mm 2 mps 750 mmHg 84%

31 October, Saturday

Time Temperature Precipitation Wind Pressure Humidity
00:00 +9°C° 0 mm 2 mps 750 mmHg 85%
01:00 +9°C° 0 mm 2 mps 750 mmHg 87%
02:00 +8°C° 0 mm 2 mps 749 mmHg 88%
03:00 +8°C° 0 mm 2 mps 750 mmHg 89%
04:00 +8°C° 0 mm 2 mps 750 mmHg 89%
05:00 +8°C° 0 mm 2 mps 750 mmHg 90%
06:00 +8°C° 0 mm 2 mps 750 mmHg 88%
07:00 +9°C° 0 mm 1 mps 750 mmHg 87%
08:00 +10°C° 0 mm 1 mps 750 mmHg 85%
Show more

We Need Your Consent

Meteoprog and our Service Providers may store and access personal data such as cookies, device identifiers or other similar technologies on your device and process such data to personalise content and ads, as well as provide social media features and to analyse the traffic.

  • Store and/or access information on your device

    Cookies, device identifiers or other information can be stored or accessed on your device for the purposes indicated above.

  • Personalised ads and content, ad and content measurement, audience insights, and products development

    Ads and content can be personalised based on a profile. More data can be added to better personalise ads and content. Ad and content performance can be measured. Insights about the audience who saw the ads and content can be derived. Such data can be used to develop or improve user’s experience, systems and software.

By clicking ‘I Agree’ you will allow the use of indicated cookies, device identifiers, web beacons or other similar technologies. Your settings can be changed in the browser on your device.

For certain purposes, legitimate interests may be relied on, rather than consent. You can read more about this in our Privacy and Cookie Policy.